CZ-2D R/B, 54030

Orbit data source: Space-Track

CZ-2D R/B, 54030 is space debris in SSO originally from a launch on Sat, 08 Oct 2022 UTC launched from the Jiuquan Satellite Launch Center, China (JSC). Debris objects in space refer to the collection of defunct objects orbiting the Earth. Examples of debris include non-operational satellites, rocket bodies, and fragments generated from explosions, collisions, or faulty payload assembly.

Loading next visibility...
Identifier
54030, 2022-129B
Orbit
SSO
Country
Flag of CNCN / PRC
Related business
Manufacturer
BWYIC
Mission
Spacecraft
Bus & Motor
CZ-2 STAGE 2, Unknown motor
Mass
4,006 kg wet, 4,006 kg dry
Launch date (UTC)
2022-10-08 (4 years ago)
Launch vehicle
Unknown
Launch site
Jiuquan Satellite Launch Center, China (JSC)
Object type
Payload
Rocket body
Debris
Shape & HBR
Cyl, 4.5 m
Radar Cross Section
27.824 m², Large (>1 m²)

Expand to show TLE details & history
Last TLE update: 2 days ago

TLE from 2 days ago
0 CZ-2D R/B
1 54030U 22129B   26170.98321225  .00000245  00000-0  65043-4 0  9999
2 54030  98.2113 174.0154 0016470 254.9568 104.9808 14.56804210196419
Epoch: 2026-06-19T23:35Z
TLE epoch observation values (Epoch: 2026-06-19T23:35:49.538Z)
Latitude
Longitude
-88.14537°
Altitude
709.526 km
Speed
7.499 km/s
True Right ascension
11h 36m 03s
True Declination
0° 00' 00"
Sunlit
Object was in daylight at epoch
Visualization orbit readout
Latitude
Unknown
Longitude
Unknown
Altitude
Unknown
Speed
Unknown
Apparent Right ascension
Unknown
Apparent Declination
Unknown
Sunlit
N/A
Visualization observer readout
Local Sidereal Time
21:26:09
Azimuth
Unknown
Elevation
Unknown
Doppler factor
Unknown
Orbital elements
Apogee altitude
712.256 km
Perigee altitude
688.939 km
Semi-major axis
7,078.735 km
Eccentricity
0.00165
Inclination
98.2113°
RAAN
174.0154°
Arg. of periapsis
254.9568°
True anomaly
105.16302°
Mean anomaly
104.9808°
Eccentric anomaly
105.07192°
Mean motion
3.64426 °/min
Orbital period
98.79 mins
BSTAR
0.000065043
Loading maneuver chart data...
Computing Atmospheric mass density...
Loading historical data...
Loading historical data...
Loading historical data...
Loading historical data...
Loading historical data...
Loading historical data...
Loading historical data...
Other satellites on launch #129 in the year 2022 (2022-10-08 UTC)

Documentation

Showing up to 5 results
|